Home   Weather   Gunsan   Past weeks

Flag for South Korea Past Weather in Gunsan, South Korea — Yesterday and Last 2 Weeks

Now
78 °F

Sunny.


Feels Like: 78 °F
Forecast: 60 / 79 °F
Wind: 14 mph from Southwest

Location: Kunsan Ab

Current Time: May 28, 2017 at 12:07:56 pm

Latest Report: May 28, 2017 at 10:58 am


Visibility: 10 mi

Pressure: 29.92 "Hg

Humidity: 31%

Dew Point: 45 °F

Location of GunsanLocation

Past Weather in Gunsan — Graph

°F

Gunsan Temperature Yesterday

Maximum temperature yesterday: 70 °F (at 2:58 pm)
Minimum temperature yesterday: 53 °F (at 4:58 am)
Average temperature yesterday: 62 °F

High & Low Weather Summary for the Past Weeks

 TemperatureHumidityPressure
High78 °F (May 22, 3:58 pm)100% (May 13, 11:16 pm)30.08 "Hg (May 13, 11:16 pm)
Low52 °F (May 17, 4:07 am)30% (May 19, 12:58 pm)29.67 "Hg (May 13, 2:58 pm)
Average63 °F77%29.90 "Hg
* Reported May 13 10:00 am — May 28 10:58 am, Gunsan. Weather by CustomWeather, © 2017

Note: Actual official high and low records may vary slightly from our data, if they occured in-between our weather recording intervals... More about our weather records

Advertising

Gunsan Weather History for the Previous 24 Hours

Scroll right to see more
 ConditionsComfort  
Time TempWeatherWind HumidityBarometerVisibility
10:58 am
Sun, May 28
78 °FSunny.14 mph31%29.92 "Hg10 mi
9:58 am74 °FPassing clouds.9 mph42%29.92 "Hg10 mi
8:58 am69 °FSunny.9 mph50%29.92 "Hg10 mi
7:58 am63 °FSunny.7 mph71%29.92 "Hg10 mi
6:58 am59 °FSunny.6 mph82%29.92 "Hg10 mi
5:58 am57 °FSunny.5 mph91%29.92 "Hg10 mi
4:58 am57 °FClear.6 mph89%29.91 "Hg10 mi
3:58 am57 °FPassing clouds.6 mph91%29.91 "Hg10 mi
2:58 am58 °FClear.5 mph84%29.91 "Hg10 mi
1:58 am58 °FClear.7 mph84%29.93 "Hg10 mi
12:58 am59 °FClear.5 mph83%29.93 "Hg10 mi
11:58 pm
Sat, May 27
61 °FClear.3 mph75%29.93 "Hg10 mi
10:58 pm62 °FClear.6 mph62%29.93 "Hg10 mi
9:58 pm61 °FClear.No wind64%29.93 "Hg10 mi
8:58 pm62 °FClear.5 mph58%29.91 "Hg10 mi
7:58 pm62 °FClear.9 mph55%29.90 "Hg10 mi
6:58 pm65 °FSunny.8 mph49%29.89 "Hg10 mi
5:58 pm67 °FSunny.10 mph56%29.89 "Hg10 mi
4:58 pm68 °FSunny.8 mph48%29.90 "Hg10 mi
3:58 pm68 °FSunny.12 mph50%29.91 "Hg10 mi
2:58 pm70 °FSunny.10 mph36%29.91 "Hg10 mi
1:58 pm70 °FPassing clouds.13 mph43%29.92 "Hg10 mi
12:58 pm69 °FPassing clouds.8 mph41%29.93 "Hg10 mi
Weather by CustomWeather, © 2017

See weather overviewHow to use our weather pages